MicroStrategy EBITDA Margin 2010-2024 | MSTR

Current and historical EBITDA (Earnings Before Interest, Taxes, Depreciation and Amortization) margin for MicroStrategy (MSTR) over the last 10 years. The current EBITDA margin for MicroStrategy as of March 31, 2024 is .
MicroStrategy EBITDA Margin Historical Data
Date TTM Revenue TTM EBITDA EBITDA Margin
2024-03-31 $0.49B $-0.27B -56.15%
2023-12-31 $0.50B $-0.09B -18.38%
2023-09-30 $0.50B $-0.24B -48.41%
2023-06-30 $0.50B $-0.21B -42.80%
2023-03-31 $0.50B $-1.11B -220.52%
2022-12-31 $0.50B $-1.26B -251.90%
2022-09-30 $0.50B $-1.20B -239.92%
2022-06-30 $0.50B $-1.26B -249.40%
2022-03-31 $0.51B $-0.75B -148.32%
2021-12-31 $0.51B $-0.77B -149.90%
2021-09-30 $0.51B $-0.63B -123.67%
2021-06-30 $0.51B $-0.60B -118.38%
2021-03-31 $0.49B $-0.18B -36.79%
2020-12-31 $0.48B $0.00B 0.21%
2020-09-30 $0.48B $0.01B 1.66%
2020-06-30 $0.48B $0.03B 6.51%
2020-03-31 $0.48B $0.02B 3.93%
2019-12-31 $0.49B $0.01B 1.44%
2019-09-30 $0.49B $-0.01B -1.65%
2019-06-30 $0.49B $-0.01B -1.44%
2019-03-31 $0.49B $-0.01B -1.02%
2018-12-31 $0.50B $0.01B 1.61%
2018-09-30 $0.50B $0.03B 6.18%
2018-06-30 $0.51B $0.05B 9.68%
2018-03-31 $0.50B $0.07B 13.49%
2017-12-31 $0.50B $0.09B 17.69%
2017-09-30 $0.51B $0.11B 22.20%
2017-06-30 $0.51B $0.12B 23.78%
2017-03-31 $0.52B $0.13B 24.95%
2016-12-31 $0.51B $0.13B 24.90%
2016-09-30 $0.52B $0.13B 25.97%
2016-06-30 $0.52B $0.14B 26.55%
2016-03-31 $0.53B $0.15B 28.90%
2015-12-31 $0.53B $0.16B 29.38%
2015-09-30 $0.54B $0.14B 26.87%
2015-06-30 $0.56B $0.11B 19.03%
2015-03-31 $0.57B $0.06B 10.60%
2014-12-31 $0.58B $0.03B 5.17%
2014-09-30 $0.60B $0.02B 2.68%
2014-06-30 $0.59B $0.04B 5.95%
2014-03-31 $0.58B $0.05B 7.88%
2013-12-31 $0.58B $0.05B 7.99%
2013-09-30 $0.57B $0.04B 7.24%
2013-06-30 $0.56B $0.04B 6.43%
2013-03-31 $0.56B $0.05B 8.26%
2012-12-31 $0.57B $0.06B 9.91%
2012-09-30 $0.54B $0.06B 10.11%
2012-06-30 $0.55B $0.05B 8.91%
2012-03-31 $0.55B $0.04B 7.59%
2011-12-31 $0.54B $0.04B 7.26%
2011-09-30 $0.54B $0.04B 7.76%
2011-06-30 $0.51B $0.05B 9.34%
2011-03-31 $0.48B $0.06B 11.78%
2010-12-31 $0.46B $0.06B 13.85%
2010-09-30 $0.42B $0.07B 16.82%
2010-06-30 $0.41B $0.09B 22.14%
2010-03-31 $0.39B $0.09B 23.79%
2009-12-31 $0.38B $0.10B 25.66%
Sector Industry Market Cap Revenue
Computer and Technology Computer Software $26.318B $0.496B
MicroStrategy Incorporated, a leading worldwide provider of business intelligence software, today announced that GT Nexus has selected MicroStrategy to power the customer-facing analytics and reporting capabilities on its Global Logistics portal. The GT Nexus portal is an on demand technology platform that is used by importers, exporters, transportation carriers, suppliers, banks, and other partners to manage goods that are moving around the world. The GT Nexus system captures and stores hard-to-get data associated with global supply chains, and then fuels a range of Web applications that can be used by constituents to lower supply chain costs and improve control. MicroStrategy will help GT Nexus to deliver a wide range of analytics and reporting capabilities to its customers, which include Home Depot, Kmart, Xerox, Weyerhaeuser, and American Eagle Outfitters.
Stock Name Country Market Cap PE Ratio
Microsoft (MSFT) United States $3342.903B 38.94
Oracle (ORCL) United States $389.954B 31.66
Adobe (ADBE) United States $238.981B 38.27
Salesforce (CRM) United States $237.463B 35.36
Intuit (INTU) United States $176.716B 55.06
Synopsys (SNPS) United States $92.777B 63.94
Cadence Design Systems (CDNS) United States $86.737B 82.48
Autodesk (ADSK) United States $52.220B 47.60
Dassault Systemes SA (DASTY) France $49.576B 32.21
ANSYS (ANSS) United States $28.403B 52.56
PTC (PTC) United States $21.212B 56.26
SS&C Technologies Holdings (SSNC) United States $15.396B 14.58
Manhattan Associates (MANH) United States $14.784B 78.47
Descartes Systems Group (DSGX) Canada $8.060B 67.42
Open Text (OTEX) Canada $8.013B 8.16
Trend Micro (TMICY) Japan $5.572B 40.36
CommVault Systems (CVLT) United States $5.194B 84.87
Pegasystems (PEGA) United States $5.001B 44.23
ACI Worldwide (ACIW) United States $3.916B 18.76
Blackbaud (BLKB) United States $3.909B 33.65
Progress Software (PRGS) United States $2.115B 13.44
Verint Systems (VRNT) United States $2.110B 19.76
Sapiens (SPNS) Israel $1.861B 25.38
BlackBerry (BB) Canada $1.357B 0.00
PROS Holdings (PRO) United States $1.343B 0.00
Simulations Plus (SLP) United States $0.962B 70.81
Rand Worldwide (RWWI) United States $0.650B 0.00
Magic Software Enterprises (MGIC) Israel $0.496B 10.52
Canaan (CAN) China $0.311B 0.00
American Software (AMSWA) United States $0.290B 24.91
OptimizeRx (OPRX) United States $0.193B 0.00
Rigetti Computing (RGTI) United States $0.164B 0.00
Icad Inc (ICAD) United States $0.038B 0.00
Neonode (NEON) Sweden $0.035B 0.00
NetSol Technologies (NTWK) United States $0.030B 0.00
Wetouch Technology (WETH) $0.028B 0.00
Smith Micro Software (SMSI) United States $0.022B 0.00
Hanryu Holdings (HRYU) South Korea $0.014B 0.00
GSE Systems (GVP) United States $0.011B 0.00
SAP SE (SAP) Germany $0.000B 49.66